Flag for Germany Weather past 2 weeks in Garbsen, Lower Saxony, Germany

Now
61 °F

Broken clouds.


Feels Like: 61 °F
Forecast: 55 / 64 °F
Wind: 12 mph from West

Location: Hannover

Current Time: Jul 28, 2015 at 6:06:50 PM

Latest Report: Jul 28, 2015 at 5:20 PM


Visibility: N/A

Pressure: 29.65 "Hg

Humidity: 77%

Dew point: 54 °F

Location of GarbsenLocation

Historic Weather in Garbsen — Graph

°F

Garbsen temperature yesterday

Maximum temperature yesterday: 66 °F (at 1:20 PM)
Minimum temperature yesterday: 55 °F (at 3:20 AM)
Average temperature yesterday: 60 °F

Past Weeks' High & Low Weather Summary

 TemperatureHumidityPressure
High90 °F (Jul 17, 3:50 PM)100% (Jul 13, 7:50 PM)30.12 "Hg (Jul 13, 7:50 PM)
Low52 °F (Jul 26, 5:50 AM)33% (Jul 17, 3:50 PM)29.47 "Hg (Jul 25, 12:50 PM)
Average66 °F78%29.87 "Hg
* Reported Jul 13 4:20 PM — Jul 28 4:50 PM, Garbsen, Weather by CustomWeather, © 2015

Note: Actual official high and low records may vary slightly from our data, if they occured in-between our weather recording intervals... More about our weather records

Advertising

Garbsen weather history for previous 24 hours

 ConditionsComfort  
Time TempWeatherWind HumidityBarometerVisibility
4:50 PM
Tue, Jul 28
63 °FSprinkles. Broken clouds.17 mph68%29.65 "HgN/A
4:20 PM66 °FBroken clouds.15 mph60%29.62 "HgN/A
3:50 PM66 °FPartly sunny.16 mph60%29.62 "HgN/A
3:20 PM64 °FPartly sunny.15 mph68%29.65 "HgN/A
2:50 PM63 °FBroken clouds.14 mph77%29.65 "HgN/A
2:20 PM61 °FBroken clouds.15 mph83%29.65 "HgN/A
1:50 PM61 °FSprinkles. Broken clouds.20 mph77%29.62 "HgN/A
1:20 PM66 °FScattered clouds.17 mph64%29.62 "HgN/A
12:50 PM64 °FBroken clouds.20 mph64%29.62 "HgN/A
12:20 PM64 °FScattered clouds.20 mph68%29.62 "HgN/A
11:20 AM63 °FBroken clouds.18 mph73%29.62 "HgN/A
10:50 AM63 °FBroken clouds.18 mph73%29.62 "HgN/A
10:20 AM63 °FBroken clouds.16 mph73%29.59 "HgN/A
9:50 AM61 °FBroken clouds.17 mph77%29.59 "HgN/A
9:20 AM59 °FBroken clouds.14 mph77%29.59 "HgN/A
8:50 AM59 °FSprinkles. Broken clouds.14 mph82%29.59 "HgN/A
8:20 AM57 °FSprinkles. Partly sunny.14 mph82%29.59 "HgN/A
7:50 AM57 °FPartly sunny.15 mph82%29.59 "HgN/A
7:20 AM57 °FSprinkles. Partly sunny.12 mph82%29.56 "HgN/A
6:50 AM57 °FSprinkles. Partly sunny.13 mph82%29.56 "HgN/A
6:20 AM57 °FPassing clouds.13 mph77%29.56 "HgN/A
5:50 AM57 °FSprinkles. Partly cloudy.12 mph82%29.56 "HgN/A
5:20 AM57 °FPassing clouds.13 mph82%29.56 "HgN/A
4:50 AM57 °FPassing clouds.15 mph82%29.56 "HgN/A
4:20 AM57 °FPassing clouds.12 mph82%29.56 "HgN/A
3:50 AM59 °FPassing clouds.14 mph77%29.56 "HgN/A
3:20 AM59 °FPassing clouds.9 mph82%29.56 "HgN/A
2:50 AM59 °FClear.10 mph82%29.56 "Hg10 mi
2:20 AM59 °FPassing clouds.10 mph88%29.56 "HgN/A
1:50 AM61 °FClear.10 mph83%29.56 "Hg10 mi
1:20 AM61 °FSprinkles. Passing clouds.8 mph88%29.56 "HgN/A
12:50 AM59 °FPartly cloudy.7 mph94%29.56 "HgN/A
11:20 PM
Mon, Jul 27
63 °FPassing clouds.9 mph83%29.56 "HgN/A
10:50 PM61 °FPassing clouds.9 mph88%29.56 "HgN/A
10:20 PM61 °FBroken clouds.8 mph88%29.56 "HgN/A
9:50 PM61 °FBroken clouds.7 mph88%29.56 "HgN/A
9:20 PM61 °FScattered showers. Scattered clouds.10 mph88%29.56 "HgN/A
8:50 PM63 °FScattered clouds.14 mph83%29.56 "HgN/A
8:20 PM63 °FScattered clouds.9 mph88%29.53 "HgN/A
7:50 PM64 °FScattered showers. Partly sunny.13 mph83%29.53 "HgN/A
7:20 PM64 °FPartly sunny.14 mph83%29.53 "HgN/A
6:50 PM63 °FPartly sunny.14 mph88%29.53 "HgN/A
6:20 PM63 °FSprinkles. Partly sunny.17 mph83%29.53 "HgN/A
Weather by CustomWeather, © 2015

See weather overviewHow to use our weather pages